{"data":{"norad_id":57184,"intl_designator":"2023-091U","name":"MONITOR-2 (RS39S)","alt_names":[],"object_type":"PAYLOAD","status":"ACTIVE","operator":null,"country":"CIS","launch_date":"2023-06-27","launch_site_code":"VOSTO","launch_vehicle":null,"mission":null,"orbit_class":"UNKNOWN","rcs_meters":null,"size_class":null,"mass_kg":null,"dimensions":null,"purposes":["comms"],"wikipedia_slug":null,"has_3d_model":false,"image_url":null,"decayed_at":null,"tle_current":{"epoch":"2026-09-19T22:57:19.598976Z","epoch_age_seconds":61489,"freshness":"FRESH","line1":"1 57184U 23091U   26262.95647684  .00002976  00000+0  14267-3 0  9993","line2":"2 57184  97.4971 320.6223 0012065 137.0837 223.1341 15.19633371178343","mean_motion":15.19633371,"eccentricity":0.0012065,"inclination_deg":97.4971,"raan_deg":320.6223,"arg_perigee_deg":137.0837,"mean_anomaly_deg":223.1341,"bstar":0.00014267,"rev_number":17834,"period_min":94.75969845624,"perigee_km":498.64094018303,"apogee_km":515.25464979334,"semimajor_km":6885.0847949882,"source":"CELESTRAK","updated_at":"2026-09-20T09:00:45.238079Z"}}}